Lemur-2-Furiaus

operational
NORAD ID: 42840 Int'l Des: 2017-042 Owner: SPIRE Country: US Constellation: spire
LEOCIRCULARRETROGRADESSO

Lemur-2-Furiausについて

説明を読み込み中...

リアルタイム位置

3D地球を読み込み中...

次回通過

高度履歴

Altitude vs Time

uPlot chart will show altitude changes over time

軌道要素

1 42840U 17042R 26061.02725448 .00026595 00000-0 10404-2 0 9997
2 42840 97.3735 240.6712 0007662 84.5106 275.7006 15.25782695471842
Epoch: Mar 2, 2026 • Age: 42 hours

現在のステータス

高度 490.9 km
速度 7.63 km/s
衛星直下点 46.48°N, 166.35°E
打ち上げ日 Jul 14, 2017
運用期間 8.6 years
タイプ other

技術仕様

分類 Payload
質量 4.00 kg
乾燥質量 4.00 kg
総質量 4.00 kg
長さ 0.30 m
直径 0.10 m
スパン 0.30 m
形状 Box
製造者 SPIREG
バスタイプ Cubesat 3U
フェーズステータス In Orbit
所有者/国 SPIRE/US

大規模コンステレーション

Loading constellations...